Find Jilin-1 GaoFen 07C 02 xing

NORAD ID: 68697 Int'l Des: NNA 2026-080 Owner: CGSTL Country: CN Constellation: jilin-1 operational
LEOCIRCULARRETROGRADESSO

現在のビュー

3D地球を読み込み中...

Jilin-1 GaoFen 07C 02 xingについて

説明を読み込み中...

次回通過

Passes for default location (London). Set your location on the main map for personalized predictions.

高度履歴

Loading altitude history...

軌道要素

1 68697U 26080G 26151.20408240 .00008192 00000-0 50650-3 0 9996
2 68697 97.6666 226.8600 0017093 121.9724 238.3169 15.09987594 7060
Epoch: May 31, 2026 • Age: 6 hours

現在のステータス

高度 546.4 km
速度 7.58 km/s
衛星直下点 -3.35°S, 169.93°E
打ち上げ日 Apr 14, 2026
運用期間 0.1 years
タイプ other

技術仕様

分類 Payload
質量 50.00 kg
乾燥質量 50.00 kg
総質量 50.00 kg
長さ 1.50 m
直径 1.00 m
スパン 1.50 m
形状 Box
製造者 CGSTL
バスタイプ JL-1GF07
フェーズステータス In Orbit
所有者/国 CGSTL/CN

Most Searched